Regional Weather Roundup
Issued by NWS

Home | Current Version | Previous Version | Graphics & Text | Print | Product List | Glossary On
Versions: 1 2 3 4 5 6 7 8 9 10 11 12 13 14 15 16 17 18 19 20 21 22 23 24 25 26 27 28 29 30 31 32 33 34 35 36 37 38 39 40 41 42 43 44 45 46 47 48 49 50
000
ASUS43 KMPX 180201
RWRMN
WEATHER ROUNDUP FOR MINNESOTA
NATIONAL WEATHER SERVICE TWIN CITIES/CHANHASSEN MN
900 PM CDT THU AUG 17 2017


NOTE: "FAIR" INDICATES FEW OR NO CLOUDS BELOW 12,000 FEET WITH NO
SIGNIFICANT WEATHER AND/OR OBSTRUCTIONS TO VISIBILITY. N/A MEANS
CURRENT SKY AND/OR WEATHER CONDITIONS ARE NOT AVAILABLE.

MNZ060>063-068>070-180300-
   Twin Cities Metro

CITY           SKY/WX    TMP DP  RH WIND       PRES   REMARKS
TWIN CITIES    MOCLDY    71  59  65 NW15      29.81R
ST PAUL        CLOUDY    69  63  81 NW8       29.81R
CRYSTAL        MOCLDY    69  58  67 NW9       29.81R
BLAINE         MOCLDY    72  63  73 NW13G20   29.81R
LAKEVILLE      MOCLDY    64  61  88 W3        29.83R
EDEN PRAIRIE   CLEAR     68  62  81 W3        29.82R
SOUTH ST PAUL  CLOUDY    70  61  74 NW7       29.80S
LAKE ELMO      CLOUDY    68  63  83 NW8       29.82R
$$
MNZ001>005-007-008-013>017-022>024-027-028-180300-
   Northwest Minnesota

CITY           SKY/WX    TMP DP  RH WIND       PRES   REMARKS
BEMIDJI        CLEAR     62  58  87 CALM      29.85S
HALLOCK        CLEAR     70  55  60 NW5       29.81S
ROSEAU         CLEAR     66  61  82 CALM      29.82S
WARROAD        CLEAR     64  61  88 W3        29.82S
CROOKSTON      CLEAR     70  57  64 CALM      29.83S
FOSSTON        CLEAR     63  55  77 CALM      29.86R
DETROIT LAKES  CLEAR     68  61  77 CALM      29.87S
MOORHEAD       CLEAR     68  63  83 CALM      29.85R
PARK RAPIDS    CLEAR     66  60  81 CALM      29.85S
MAHNOMEN       FAIR      64  59  84 NW5       29.85R
$$
MNZ006-009>011-018-025>026-180300-
   North Central Minnesota

CITY           SKY/WX    TMP DP  RH WIND       PRES   REMARKS
BAUDETTE       CLEAR     62  59  90 CALM      29.81S
FLAG ISLAND    CLEAR     70  59  68 CALM      29.80S
INTL FALLS     FOG       57  55  93 CALM      29.81S VSB 3/4
WASKISH        CLEAR     61  57  88 CALM      29.83S
BIG FORK       CLEAR     57  55  94 CALM      29.83S
LONGVILLE      CLEAR     57  57 100 CALM      29.84S
GRAND RAPIDS   CLEAR     59  57  93 CALM      29.85R
CRANE LAKE     CLOUDY    61  57  88 N5        29.82S
ORR            PTCLDY    61  55  82 CALM      29.79S
COOK           MOCLDY    61  57  88 NW3       29.82R
WALKER         FAIR      59  58  97 CALM      29.84F
$$
MNZ012-019>021-037-180300-
   Northeast Minnesota

CITY           SKY/WX    TMP DP  RH WIND       PRES   REMARKS
DULUTH         CLOUDY    61  60  97 NW10      29.78R
ELY            CLOUDY    61  59  94 NW6       29.78S
HIBBING        MOCLDY    60  58  92 N6        29.81S
EVELETH        CLOUDY    63  57  81 N6        29.82R
DULUTH HARBOR  CLOUDY    66  61  82 NW10      29.77R
TWO HARBORS    CLOUDY    64  61  88 N8        29.73R
GRAND MARAIS     N/A     63  61  93 CALM      29.67R
$$
MNZ029>031-032-039>041-046>048-054>057-064-180300-
   West Central Minnesota

CITY           SKY/WX    TMP DP  RH WIND       PRES   REMARKS
FERGUS FALLS   CLEAR     66  61  82 N5        29.85R
WHEATON        CLEAR     66  61  82 CALM      29.88R
MORRIS         CLEAR     66  63  88 NW3       29.85S
ALEXANDRIA     CLEAR     66  60  81 CALM      29.87S
ELBOW LAKE     FAIR      67  62  83 W3        29.86S HAZE
WADENA         CLEAR     63  63 100 CALM      29.85S
GLENWOOD       CLEAR     64  59  82 NW3       29.87R
APPLETON       CLEAR     66  61  82 CALM      29.86R
BENSON         CLEAR     64  61  88 NW5       29.87R
ORTONVILLE     CLEAR     66  61  82 MISG      29.87R
MADISON        CLEAR     68  63  83 W3        29.87R
WILLMAR        FAIR      66  64  94 CALM      29.87R
$$
MNZ033>034-036-042>043-049>051-058-059-180300-
   Central Minnesota

CITY           SKY/WX    TMP DP  RH WIND       PRES   REMARKS
ST CLOUD       CLEAR     62  60  93 NW3       29.84R
SAUK CENTRE    FAIR      64  59  82 CALM      29.85S
PAYNESVILLE    CLEAR     64  60  88 CALM      29.86R
AITKIN         CLEAR     57  55  94 CALM      29.82S
PINE RIVER     CLEAR     59  55  88 CALM      29.88S
BRAINERD       CLEAR     63  57  81 NW5       29.84S
STAPLES        CLEAR     63  57  82 CALM      29.85S
LONG PRAIRIE   FAIR      61  57  88 CALM      29.86R
LITTLE FALLS   CLEAR     63  57  82 CALM      29.85R
LITCHFIELD     CLEAR     66  63  88 CALM      29.85R
BUFFALO        CLEAR     66  59  76 NW3       29.84R
MAPLE LAKE     CLEAR     66  61  84 CALM      29.85R
HUTCHINSON     CLEAR     64  62  93 CALM      29.86R
$$
MNZ037-044-045-052-053-180300-
   East Central Minnesota

CITY           SKY/WX    TMP DP  RH WIND       PRES   REMARKS
PRINCETON      CLEAR     64  59  82 NW3       29.83R
MORA           CLOUDY    64  59  82 N10       29.84R
RUSH CITY      RAIN      66  60  81 NW6       29.81S
MOOSE LAKE     CLOUDY    63  59  88 NW7       29.79S
HINCKLEY       CLOUDY    64  61  88 NW3       29.81R
CLOQUET        CLOUDY    63  57  82 NW6       29.80R
MCGREGOR       PTCLDY    63  59  88 NW6       29.82S
$$
MNZ071>073-080-081-089-090-097-098-180300-
   Southwest Minnesota

CITY           SKY/WX    TMP DP  RH WIND       PRES   REMARKS
MONTEVIDEO     CLEAR     64  61  88 NW3       29.87R
GRANITE FALLS  CLEAR     65  64  94 W3        29.88R
CANBY          CLEAR     67  63  87 CALM      29.89R
MARSHALL       CLEAR     65  61  87 NW5       29.89R
REDWOOD FALLS  CLEAR     67  61  81 W6        29.86R
OLIVIA         CLEAR     64  61  88 CALM      29.86R
PIPESTONE      CLEAR     66  63  88 CALM      29.91R
WINDOM         CLEAR     64  61  88 W3        29.90R
WORTHINGTON    CLEAR     66  62  87 N3        29.91R
JACKSON        CLEAR     63  59  88 CALM      29.90R
TRACY          CLEAR     66  62  86 CALM      29.89R
SLAYTON        CLEAR     64  56  76 NW3       29.91R
$$
MNZ065>067-074>077-082>085-091>093-180300-
   South Central Minnesota

CITY           SKY/WX    TMP DP  RH WIND       PRES   REMARKS
MANKATO        CLEAR     67  62  84 W6        29.86R
NEW ULM        CLEAR     64  61  88 CALM      29.86R
ST JAMES       CLEAR     64  61  88 W5        29.88R
FAIRMONT       CLEAR     65  61  87 NW6       29.88R
GLENCOE        CLEAR     67  65  94 CALM      29.84R
FARIBAULT      CLOUDY    66  63  88 CALM      29.85R
OWATONNA       MOCLDY    66  63  88 W3        29.85R
WASECA         MOCLDY    64  61  88 CALM      29.87R
ALBERT LEA     PTCLDY    70  66  88 W5        29.86R
$$
MNZ078>079-086>088-094>096-180300-
   Southeast Minnesota

CITY           SKY/WX    TMP DP  RH WIND       PRES   REMARKS
ROCHESTER      MOCLDY    65  63  93 NW9       29.84R
RED WING       CLOUDY    70  61  73 NW5       29.79R
STANTON        CLOUDY    68  62  79 W6        29.82R
DODGE CENTER   CLOUDY    66  61  82 W10       29.85R
WINONA         CLOUDY    70  61  73 NW7       29.78R
AUSTIN         CLOUDY    70  63  78 NW9       29.85R
PRESTON        CLEAR     65  62  90 NW12      29.83R
$$
ABBREVIATIONS USED IN REMARKS
   TC - TEMPERATURES IN CELSIUS
  WCI - WIND CHILL INDEX
   HX - HEAT INDEX
  VSB - VISIBILITY
$$




USA.gov is the U.S. government's official web portal to all federal, state and local government web resources and services.